Wind_Speed
31 30 29 29 29 28 27 28 28 27 25 22 21 19 18 17 16 16 15 15 14 14 15 15 14 14 14 14 14 14 14 15 14 14 14 14 14 14 15 15 16 16 16 17
32 31 30 29 29 27 26 27 28 27 26 24 22 21 21 20 19 18 17 16 16 17 17 16 16 15 16 16 16 16 16 16 16 16 16 16 16 16 17 17 17 18 18 19
33 32 32 32 30 29 29 28 27 28 27 25 26 24 23 23 22 20 19 18 17 18 19 18 17 17 17 18 18 18 18 18 18 19 19 20 20 20 20 19 19 20 20 20
33 33 34 30 30 30 30 29 29 28 27 26 25 26 24 24 25 23 22 21 20 20 19 18 19 20 20 19 20 21 21 21 21 22 23 23 23 23 23 23 22 22 23 24
32 33 34 32 30 29 30 31 30 28 28 28 26 26 26 25 25 25 25 23 23 23 22 21 22 22 22 22 22 22 22 23 24 24 25 25 25 25 25 25 25 25 26 26
33 33 33 32 31 31 31 32 30 29 29 28 28 28 27 25 25 25 24 24 24 23 23 23 24 24 23 24 24 25 25 26 27 27 27 27 27 28 28 28 28 28 28 28
33 33 33 31 32 31 32 32 31 31 30 29 29 28 27 26 26 25 25 25 26 25 24 24 25 25 26 26 26 27 27 27 28 28 28 28 29 29 30 30 31 31 31 31
32 33 32 30 31 31 32 32 31 31 30 29 28 27 26 25 26 26 26 26 26 25 25 25 25 26 26 27 28 28 28 28 29 29 30 30 30 30 31 32 33 33 33 33
31 31 30 30 30 30 31 32 31 29 29 27 26 26 26 26 26 26 27 27 28 28 27 27 28 28 27 27 28 29 30 30 30 31 31 31 31 32 33 33 34 34 34 34
30 30 30 30 29 30 31 31 30 29 29 27 27 26 25 26 26 26 27 29 29 29 28 29 30 30 29 29 29 29 30 31 32 32 32 33 33 34 34 34 34 35 35 35
29 29 30 29 29 29 29 30 30 28 27 27 26 25 25 25 26 27 28 28 28 29 29 30 30 30 30 30 30 31 31 32 33 34 34 34 34 34 34 35 35 35 35 36
29 29 30 30 30 29 28 28 28 29 29 28 26 25 24 25 26 27 28 29 29 29 30 30 30 31 32 32 32 32 32 33 34 34 34 34 35 35 35 36 36 36 35 35
28 28 28 27 27 27 27 26 26 27 27 27 27 27 26 26 26 27 28 28 27 28 30 31 31 32 32 33 33 33 34 34 34 34 35 35 35 35 35 35 36 36 36 36
26 26 26 26 25 25 25 25 25 25 25 26 26 27 27 27 27 28 28 28 28 29 29 31 31 32 32 33 34 35 35 35 35 34 35 36 36 35 35 35 35 35 35 35
24 24 24 25 25 25 24 24 24 25 26 25 26 27 28 28 28 29 29 29 29 30 30 31 32 32 33 34 35 34 34 34 34 34 34 34 35 34 34 34 34 34 34 34
23 23 23 23 23 23 23 24 24 24 25 26 27 28 28 28 29 29 29 30 31 31 31 31 32 33 33 33 33 33 33 33 33 32 32 33 33 33 33 34 34 34 34 34
22 22 23 23 22 22 22 22 23 25 25 26 26 27 27 27 28 29 29 29 30 29 30 31 31 31 31 32 32 32 32 33 33 33 33 32 32 33 32 32 33 33 33 33
20 21 22 21 21 22 22 23 23 22 22 23 24 24 25 26 26 27 27 27 28 29 29 30 31 30 31 31 31 31 32 32 32 32 32 33 33 33 33 33 33 33 33 33
18 19 20 20 22 22 22 22 21 21 21 23 24 24 25 25 25 26 26 27 27 28 29 29 30 30 30 31 31 32 32 32 32 33 33 33 33 33 33 33 33 33 33 33
15 17 18 19 20 21 21 20 21 21 22 23 24 24 24 24 25 25 25 26 26 27 28 29 29 29 30 30 31 31 32 32 33 33 32 32 32 32 32 32 32 33 32 32
14 16 17 17 18 18 19 19 20 21 22 23 23 23 23 24 25 26 26 26 26 27 28 28 28 28 29 29 30 31 31 31 31 31 31 31 32 32 32 32 32 32 32 32
14 15 16 17 17 17 17 18 19 19 19 21 21 22 22 23 24 25 26 26 26 27 27 27 28 27 27 27 28 29 30 30 30 30 30 30 31 31 31 31 32 32 32 32
13 13 14 15 15 15 16 17 18 18 19 20 21 22 22 23 23 24 24 24 24 25 25 26 26 26 25 25 25 26 26 27 28 28 29 30 30 30 31 31 31 31 31 31
12 13 13 14 15 15 16 16 17 17 19 19 20 20 21 21 22 23 23 24 24 25 25 25 24 24 24 24 24 25 25 25 26 27 28 29 29 29 29 30 30 31 31 31
11 12 12 13 14 15 15 16 16 17 18 19 19 20 21 21 22 22 23 23 23 23 24 24 23 23 23 23 24 24 25 25 26 26 27 27 28 29 29 30 30 30 30 30
10 11 11 12 12 13 13 14 15 16 17 17 18 19 20 21 21 21 21 22 22 22 22 22 22 22 22 23 24 24 25 25 26 27 27 27 28 29 29 29 29 29 29 30
9 9 10 11 11 12 12 13 14 15 16 16 17 17 18 19 19 20 20 20 20 21 21 21 21 21 21 22 24 24 25 26 26 27 27 28 28 29 29 29 28 28 28 28
Wind_Direction
230 230 233 234 233 233 237 239 245 251 256 262 261 263 264 261 260 262 269 267 269 273 276 274 272 268 271 274 275 277 278 278 279 280 280 281 283 281 281 280 281 277 276 276
231 231 234 235 236 238 240 240 244 249 254 257 259 262 264 260 260 263 264 265 266 268 272 271 271 268 269 269 272 273 273 274 273 275 278 281 282 282 283 282 281 280 279 278
234 233 234 235 236 239 240 242 245 248 252 255 256 259 264 262 261 262 259 260 262 266 270 268 271 273 275 272 272 274 274 274 274 275 276 277 278 279 280 282 283 281 280 279
236 233 234 235 235 237 238 241 242 246 251 253 255 257 259 261 262 260 258 258 261 263 265 268 272 274 275 276 274 275 276 275 276 275 276 276 276 277 278 278 277 278 278 277
237 235 235 234 235 238 239 239 241 244 248 251 254 255 257 261 260 259 258 260 261 264 265 266 269 272 274 275 275 276 277 277 275 274 275 277 277 278 278 277 276 276 277 278
235 238 237 235 236 238 242 243 242 244 246 250 253 254 256 257 259 258 258 261 261 263 265 267 268 270 272 274 275 277 278 278 276 276 275 276 276 275 276 277 277 276 277 277
235 237 238 238 236 238 242 246 246 246 247 250 253 255 257 257 257 257 258 261 262 262 263 266 268 269 271 273 274 276 278 278 279 278 277 277 276 276 277 278 278 277 276 276
235 236 238 238 237 239 243 246 248 249 248 249 253 257 260 256 255 258 258 261 262 262 266 267 269 270 271 272 273 275 276 276 277 279 278 278 278 277 277 277 278 277 276 275
236 240 242 240 239 239 241 244 247 249 253 255 258 258 258 258 257 255 257 260 263 266 268 269 270 272 272 273 274 275 275 276 277 279 280 279 278 278 277 277 277 276 275 275
238 241 242 242 241 241 241 244 248 250 252 256 258 256 257 258 259 259 259 261 263 265 268 271 272 272 274 274 275 275 276 276 277 278 280 281 280 279 278 278 278 277 277 277
240 241 242 243 242 242 243 246 247 249 252 254 255 257 260 263 262 262 263 263 264 267 268 270 271 273 274 275 276 276 276 277 277 279 280 280 281 280 279 278 278 278 279 279
239 243 246 247 246 245 245 246 249 252 256 255 257 259 259 261 262 263 265 265 267 267 269 271 271 273 274 274 274 275 275 277 278 279 281 281 280 280 279 281 281 280 280 281
240 243 246 249 251 250 248 250 254 256 258 259 260 262 265 265 267 268 270 271 268 269 270 271 273 274 275 275 276 277 277 278 279 280 280 280 281 281 281 281 281 281 281 281
243 246 243 247 251 253 254 255 257 257 258 262 265 266 268 268 270 272 273 271 270 270 272 273 274 276 275 276 277 278 280 280 280 282 282 282 281 282 282 282 281 282 282 282
242 244 245 247 250 252 253 256 260 264 262 264 266 268 269 270 272 274 273 272 273 273 274 274 276 277 276 276 278 279 281 282 281 282 282 282 282 283 283 282 282 282 284 283
240 243 245 248 249 251 253 255 259 262 263 264 267 270 271 273 274 274 274 275 275 276 277 278 279 280 279 278 279 279 280 281 281 281 283 283 284 285 285 285 284 284 285 284
240 241 244 247 249 251 254 259 261 262 263 265 268 269 271 273 275 276 277 277 277 279 279 279 280 281 283 283 282 282 282 282 282 282 283 283 283 284 285 284 285 285 285 285
240 240 242 245 248 252 255 259 262 263 263 266 269 271 272 275 277 278 280 281 282 282 282 282 282 284 284 284 284 284 283 283 284 284 284 285 286 286 285 284 285 286 286 286
243 245 247 249 252 254 256 257 259 262 265 266 269 272 274 277 279 281 283 283 284 284 285 286 285 285 284 284 284 285 284 283 284 284 285 286 286 286 287 287 287 287 287 287
246 249 252 254 256 258 260 260 259 262 265 268 271 272 275 278 280 283 284 284 284 285 286 286 285 285 284 283 283 284 284 284 283 283 284 285 286 287 287 288 287 286 287 286
249 252 254 256 257 260 262 263 264 266 269 270 272 274 277 279 281 282 283 285 286 287 287 287 287 286 285 284 284 285 286 285 284 285 286 286 287 287 287 287 287 287 286 286
248 251 253 256 258 260 263 266 269 272 273 274 275 276 278 281 283 284 285 287 288 289 290 290 290 289 288 287 287 286 286 286 286 286 286 287 288 288 289 289 288 288 287 286
249 253 256 259 261 262 265 268 270 271 273 275 277 278 281 283 285 287 289 290 292 292 293 293 293 293 292 292 291 290 290 289 289 288 288 288 289 290 289 288 287 287 287 286
253 254 260 264 267 269 269 270 272 274 276 277 279 282 283 285 287 289 291 292 293 293 294 295 296 296 296 296 295 295 294 293 292 292 291 291 291 291 291 290 288 287 288 287
259 259 262 266 268 268 268 269 273 277 279 281 283 285 286 287 288 290 292 295 296 296 296 296 297 298 299 299 298 297 296 297 297 296 294 293 292 292 292 293 292 290 289 288
260 261 264 266 267 268 270 272 276 280 284 286 285 286 289 291 292 293 294 296 297 297 298 298 298 298 300 301 300 299 300 299 298 296 295 295 295 296 297 297 296 294 292 291
268 269 271 272 275 275 277 280 283 287 289 290 290 290 293 295 295 296 297 299 300 301 301 301 301 301 303 303 304 303 303 303 304 302 299 297 297 298 299 298 298 297 296 297
Height
5851 5855 5858 5861 5863 5865 5867 5868 5870 5872 5874 5877 5878 5878 5879 5879 5880 5881 5881 5882 5882 5882 5882 5883 5883 5883 5883 5884 5883 5883 5882 5882 5881 5881 5880 5879 5878 5877 5876 5875 5874 5873 5872 5871
5845 5848 5851 5854 5857 5859 5861 5862 5864 5866 5868 5871 5872 5873 5874 5875 5876 5876 5876 5877 5877 5877 5878 5878 5879 5879 5879 5879 5879 5878 5878 5877 5876 5875 5875 5874 5873 5872 5871 5870 5869 5868 5867 5866
5838 5841 5844 5847 5850 5852 5855 5857 5858 5860 5863 5865 5866 5867 5869 5870 5871 5871 5871 5871 5871 5872 5873 5873 5874 5874 5874 5874 5874 5873 5872 5872 5871 5870 5869 5868 5867 5866 5865 5864 5863 5862 5861 5860
5831 5835 5837 5843 5843 5845 5848 5850 5852 5854 5857 5859 5860 5861 5862 5864 5865 5866 5866 5866 5865 5866 5867 5868 5868 5868 5868 5868 5868 5867 5867 5866 5865 5864 5863 5862 5861 5860 5859 5857 5856 5855 5854 5853
5823 5826 5829 5834 5836 5838 5840 5842 5845 5848 5850 5852 5853 5855 5856 5858 5858 5859 5860 5859 5860 5860 5860 5861 5862 5862 5862 5862 5861 5861 5860 5859 5858 5857 5856 5854 5853 5852 5851 5850 5849 5848 5847 5846
5816 5819 5822 5827 5830 5831 5834 5835 5839 5841 5843 5844 5846 5848 5850 5851 5851 5851 5852 5853 5853 5853 5854 5854 5855 5855 5855 5855 5854 5853 5853 5852 5851 5849 5848 5847 5845 5844 5843 5842 5841 5839 5838 5837
5809 5812 5815 5819 5822 5824 5827 5829 5832 5833 5835 5836 5838 5840 5842 5843 5844 5844 5845 5846 5846 5846 5847 5848 5848 5848 5848 5847 5846 5846 5844 5843 5842 5841 5839 5838 5836 5835 5834 5832 5831 5830 5829 5828
5803 5805 5810 5812 5814 5818 5819 5821 5824 5825 5826 5828 5830 5832 5833 5834 5836 5837 5838 5839 5840 5840 5840 5841 5841 5840 5840 5839 5838 5837 5836 5835 5833 5832 5830 5828 5827 5826 5824 5823 5821 5820 5819 5818
5797 5801 5803 5805 5807 5809 5810 5813 5815 5817 5819 5821 5822 5824 5826 5827 5829 5829 5831 5832 5833 5833 5833 5833 5832 5832 5831 5830 5829 5828 5827 5826 5824 5823 5821 5819 5817 5816 5814 5812 5811 5809 5808 5807
5790 5793 5795 5797 5800 5802 5804 5806 5808 5810 5812 5814 5815 5816 5818 5820 5821 5822 5823 5824 5824 5824 5824 5824 5824 5823 5822 5821 5820 5819 5818 5816 5815 5813 5811 5809 5807 5805 5803 5802 5800 5798 5797 5796
5784 5785 5788 5790 5792 5794 5796 5799 5801 5803 5805 5807 5808 5808 5810 5812 5813 5814 5815 5815 5816 5815 5816 5815 5814 5813 5812 5811 5810 5809 5808 5806 5805 5803 5801 5799 5797 5794 5792 5790 5788 5787 5785 5783
5777 5779 5781 5783 5785 5787 5789 5791 5793 5795 5797 5799 5800 5801 5802 5803 5805 5806 5806 5806 5806 5806 5806 5806 5805 5804 5803 5801 5800 5799 5798 5796 5795 5792 5790 5788 5786 5784 5781 5779 5777 5775 5773 5772
5770 5772 5774 5776 5778 5779 5781 5784 5785 5787 5789 5791 5792 5793 5794 5795 5797 5797 5797 5795 5796 5797 5796 5796 5795 5794 5793 5792 5790 5788 5787 5786 5784 5781 5779 5777 5775 5773 5770 5768 5766 5764 5762 5760
5763 5765 5767 5769 5770 5772 5774 5776 5777 5779 5782 5783 5784 5785 5786 5787 5788 5789 5788 5788 5788 5787 5787 5786 5785 5784 5783 5781 5780 5778 5776 5774 5772 5770 5768 5766 5763 5761 5759 5757 5755 5753 5751 5749
5757 5759 5761 5763 5764 5766 5768 5770 5771 5772 5774 5775 5777 5778 5779 5779 5780 5780 5779 5779 5778 5778 5777 5776 5775 5773 5772 5770 5769 5767 5765 5763 5761 5759 5757 5755 5752 5750 5748 5746 5744 5742 5740 5737
5751 5753 5755 5757 5758 5760 5762 5764 5765 5766 5767 5768 5769 5770 5771 5771 5771 5771 5770 5770 5769 5768 5767 5766 5765 5763 5761 5760 5758 5756 5754 5752 5750 5748 5746 5744 5742 5739 5737 5735 5733 5731 5729 5727
5746 5747 5749 5751 5753 5755 5756 5757 5759 5759 5760 5761 5761 5762 5762 5762 5762 5762 5761 5760 5759 5758 5757 5756 5755 5753 5751 5750 5748 5746 5744 5742 5740 5738 5736 5734 5732 5730 5727 5725 5723 5721 5719 5716
5740 5742 5744 5745 5747 5748 5749 5750 5752 5752 5753 5753 5754 5754 5754 5754 5754 5753 5752 5751 5750 5748 5748 5746 5745 5743 5742 5740 5738 5736 5733 5731 5730 5728 5726 5724 5721 5719 5717 5714 5712 5710 5708 5706
5734 5736 5738 5739 5741 5742 5743 5743 5744 5745 5746 5747 5747 5747 5747 5746 5746 5745 5745 5743 5742 5740 5739 5737 5735 5733 5732 5730 5728 5726 5724 5722 5720 5718 5715 5713 5711 5709 5706 5704 5702 5700 5697 5695
5729 5730 5732 5733 5734 5736 5737 5737 5738 5739 5739 5740 5740 5740 5740 5739 5739 5738 5737 5735 5734 5732 5730 5728 5726 5724 5722 5721 5719 5717 5714 5712 5710 5708 5705 5703 5701 5699 5696 5694 5691 5689 5687 5685
5724 5725 5727 5728 5729 5730 5731 5732 5732 5732 5732 5733 5733 5733 5733 5732 5732 5731 5729 5728 5727 5724 5722 5720 5718 5716 5714 5712 5709 5707 5705 5702 5700 5698 5695 5693 5691 5688 5686 5684 5681 5679 5677 5675
5719 5721 5722 5723 5724 5725 5725 5726 5726 5726 5726 5727 5727 5726 5726 5725 5724 5723 5722 5721 5719 5717 5714 5712 5710 5708 5705 5703 5700 5698 5696 5693 5691 5688 5686 5683 5680 5678 5675 5673 5671 5669 5666 5664
5715 5717 5718 5718 5719 5720 5720 5721 5721 5721 5721 5721 5720 5720 5719 5718 5717 5716 5715 5713 5711 5709 5707 5704 5702 5700 5697 5695 5692 5689 5687 5684 5681 5679 5676 5673 5671 5668 5666 5663 5661 5659 5656 5654
5711 5712 5713 5714 5714 5715 5715 5715 5715 5715 5715 5715 5714 5714 5713 5712 5710 5709 5707 5706 5704 5702 5699 5697 5695 5692 5689 5687 5684 5681 5679 5676 5673 5670 5667 5664 5661 5659 5656 5654 5651 5649 5647 5644
5708 5708 5709 5710 5710 5710 5710 5711 5710 5710 5709 5709 5708 5707 5706 5705 5704 5702 5701 5699 5697 5695 5692 5690 5687 5685 5682 5679 5676 5674 5671 5668 5665 5662 5659 5655 5653 5650 5647 5644 5642 5639 5637 5634
5704 5705 5705 5706 5706 5706 5706 5706 5706 5705 5704 5703 5702 5701 5700 5698 5697 5695 5694 5692 5690 5688 5685 5683 5680 5678 5675 5672 5669 5666 5663 5660 5657 5653 5650 5647 5644 5641 5638 5635 5632 5629 5627 5624
5702 5702 5702 5703 5703 5703 5702 5702 5701 5700 5699 5698 5696 5695 5693 5692 5691 5689 5687 5686 5683 5681 5678 5676 5673 5671 5668 5665 5662 5659 5655 5652 5649 5646 5642 5639 5636 5633 5630 5626 5623 5620 5617 5615